Volver al catálogo

OSCAR 6

ActivoRadioaficionadoSSO
NORAD 6236·PAYLOAD·🇺🇸 United States

Lanzado Oct 15, 1972 desde Vandenberg Space Force Base

Loading…

Próximos Pases (próximas 24 horas)

TLE

ActualizadoSource: Space-Track

Época: Sep 14, 2026, 01:55 UTC

1 06236U 72082B   26257.08020245 -.00000047  00000-0 -48576-5 0  9997
2 06236 101.9892 281.2956 0004202 345.4651  33.4617 12.53213177466101

Sigue OSCAR 6 en tiempo real con AllMySat

Download on the App Store